User: anonymous   Login
Location: Young's Pond
(41.2695°N, 72.7766°W)
Time: 17:39:06
(UTC-04:00)
Language:

Spot 4 - Orbit

View from above orbital plane
View from above orbital plane
View from above satellite
View from above satellite

Ground track
Ground track

The orbit data is extracted from the following two-line orbital elements,

1 25260U 98017A   17235.52745584  .00000098  00000-0  34490-4 0  9999
2 25260  98.3478 317.6841 0014314  69.0768 291.1963 14.53489312 11637
Epoch (UTC): 23 August 2017 12:39:32
Eccentricity: 0.0014314
inclination: 98.3478°
perigee height: 704 km
apogee height: 724 km
right ascension of ascending node: 317.6841°
argument of perigee: 69.0768°
revolutions per day: 14.53489312
mean anomaly at epoch: 291.1963°
orbit number at epoch: 1163

The dashed part of the orbit path shows where the satellite is in the earth's shadow,  

DLR